Location: Ellerstadt
(49.4644°N, 8.2615°E)
Time: 20:54:12
(UTC+00:00)

Vanguard 1 - Pass Details

Date: 19 June 2021
Orbit: 651 x 3832 km, 34.2° (Epoch: 27 July)

Event Time Altitude Azimuth Distance (km) Brightness Sun altitude
Rises 02:18:24 0° 273° (W) 6,908 14.0 -7.9°
Reaches altitude 10° 02:24:55 10° 262° (W) 5,295 13.3 -7.2°
Maximum altitude 02:34:28 22° 220° (SW) 3,384 12.2 -6.2°
Drops below altitude 10° 02:41:00 10° 173° (S) 3,460 12.5 -5.5°
Sets 02:44:09 0° 158° (SSE) 4,049 13.0 -5.1°
